Regional Weather Roundup
Issued by NWS New Orleans/Baton Rouge, LA

Home | Current Version | Previous Version | Graphics & Text | Print | Product List | Glossary On
Versions: 1 2 3 4 5 6 7 8 9 10 11 12 13 14 15 16 17 18 19 20 21 22 23 24 25 26 27 28 29 30 31 32 33 34 35 36 37 38 39 40 41 42 43 44 45 46 47 48 49 50
861
ASUS44 KLIX 290201
RWRLIX
NEW ORLEANS REGIONAL WEATHER ROUNDUP
NATIONAL WEATHER SERVICE NEW ORLEANS LA
800 PM CST FRI NOV 28 2014

NOTE: "FAIR" INDICATES FEW OR NO CLOUDS BELOW 12,000 FEET WITH NO
      SIGNIFICANT WEATHER AND/OR OBSTRUCTIONS TO VISIBILITY.
      SKY/WX - SKY CONDITION AND SIGNIFICANT WEATHER.
      TMP - AIR TEMPERATURE.     DP    - DEWPOINT TEMPERATURE.
      RH  - RELATIVE HUMIDITY.   PRES  - PRESSURE.
      HI  - HEAT INDEX.          WCI   - WIND CHILL INDEX.

*  THESE STATIONS ARE NOT NWS OR FAA STATIONS AND ARE NOT UNDER
   NWS QUALITY CONTROL.

LAZ038-040-048-061>063-065>067-069-290300-
SOUTHEAST LOUISIANA

CITY           SKY/WX    TMP DP  RH WIND       PRES   REMARKS
N.O. AUDUBON     N/A     53  47  81 MISG        N/A
N.O. INTL ARPT CLEAR     50  44  80 SE7       30.29F
N.O. LAKEFRONT CLEAR     50  43  77 SE6       30.31S
N.O. DOWNTOWN*   N/A     54  41  62 SE6       30.30S
SLIDELL        CLEAR     42  38  85 CALM      30.29F
BATON ROUGE    CLEAR     49  42  77 SE7       30.27S
BOOTHVILLE     CLEAR     52  50  93 CALM      30.31S
BELLE CHASSE   PTCLDY    44  41  89 CALM      30.30S
BOGALUSA*        N/A     48  38  70 S5        30.30S
NEW ROADS*     NOT AVBL
GONZALES*      NOT AVBL
HAMMOND*       NOT AVBL
HOUMA*         CLEAR     45  43  95 E5        30.29S
PORT FOURCHON* CLOUDY    61  52  72 SE8       30.32S

$$

MSZ070-080>082-290300-
SOUTHERN MISSISSIPPI

CITY           SKY/WX    TMP DP  RH WIND       PRES   REMARKS
MCCOMB         CLEAR     44  29  55 S5        30.26S
GULFPORT       CLEAR     42  38  85 CALM      30.30S
BILOXI         CLEAR     49  36  60 SE1       30.30S
PASCAGOULA     CLEAR     36  34  92 CALM      30.31S

$$

COASTAL OBSERVATIONS
LAKE AND NEARSHORE STATIONS

STATION/POSITION TIME  TEMP    WIND        PRES    WAVE
                       AIR SEA DIR/SP/G            HT/PER
                 (UTC) (F)     (DEG/KT/KT) (MB)    (FT/S)
PASCAGOULA       0100   55     160/  5/  6 1025.8
WAVELAND YACHT   0100   53     180/  5/  8 1025.2
GRAND ISLE       0100   57 59   80/  4/  8 1026.2
SOUTHWEST PASS   0100   56                 1026.0
NEW CANAL        0100   50 54  140/  1/  3 1026.2
SHELL BEACH      0100   52 53  100/  5/  6 1025.9

OFFSHORE STATIONS

STATION/POSITION TIME  TEMP    WIND        PRES    WAVE
                       AIR SEA DIR/SP/G            HT/PER
                 (UTC) (F)     (DEG/KT/KT) (MB)    (FT/S)
64 S DAUPHIN ISL 0147   59 70  110/  8/ 10 1027.0    2/ 5

$$




USA.gov is the U.S. government's official web portal to all federal, state and local government web resources and services.